Home   Weather   Singapore   Past weeks

Flag for Singapore Past Weather in Singapore, Singapore — Yesterday and Last 2 Weeks

Now
79 °F

Passing clouds.


Feels Like: 82 °F
Forecast: 78 / 89 °F
Wind: 1 mph from North

Location: Changi Airport

Current Time: Aug 31, 2016 at 4:59:53 AM

Latest Report: Aug 31, 2016 at 4:30 AM


Visibility: N/A

Pressure: 29.83 "Hg

Humidity: 89%

Dew Point: 75 °F

Location of SingaporeLocation

Past Weather in Singapore — Graph

°F

Singapore Temperature Yesterday

Maximum temperature yesterday: 84 °F (at 12:00 AM)
Minimum temperature yesterday: 77 °F (at 3:00 PM)
Average temperature yesterday: 82 °F

High & Low Weather Summary for the Past Weeks

 TemperatureHumidityPressure
High91 °F (Aug 17, 12:30 PM)100% (Aug 21, 8:30 AM)29.89 "Hg (Aug 21, 8:30 AM)
Low73 °F (Aug 19, 6:00 AM)44% (Aug 26, 2:00 PM)29.65 "Hg (Aug 23, 5:00 PM)
Average84 °F75%29.79 "Hg
* Reported Aug 16 3:00 AM — Aug 31 3:30 AM, Singapore, Weather by CustomWeather, © 2016

Note: Actual official high and low records may vary slightly from our data, if they occured in-between our weather recording intervals... More about our weather records

Advertising

Singapore Weather History for the Previous 24 Hours

Scroll right to see more
 ConditionsComfort  
Time TempWeatherWind HumidityBarometerVisibility
3:30 AM
Wed, Aug 31
79 °FPassing clouds.1 mph89%29.83 "HgN/A
3:00 AM79 °FPassing clouds.No wind89%29.86 "HgN/A
2:30 AM81 °FClear.1 mph84%29.86 "Hg10 mi
2:00 AM79 °FClear.No wind89%29.86 "Hg10 mi
1:30 AM79 °FPassing clouds.1 mph89%29.86 "HgN/A
1:00 AM81 °FPassing clouds.1 mph84%29.86 "HgN/A
12:30 AM81 °FPassing clouds.2 mph84%29.86 "HgN/A
12:00 AM81 °FPassing clouds.2 mph84%29.86 "HgN/A
11:30 PM
Tue, Aug 30
81 °FPassing clouds.2 mph89%29.89 "HgN/A
11:00 PM81 °FPartly cloudy.2 mph89%29.89 "HgN/A
10:30 PM81 °FPartly cloudy.2 mph84%29.89 "HgN/A
10:00 PM81 °FPassing clouds.2 mph84%29.89 "HgN/A
9:30 PM81 °FPassing clouds.3 mph84%29.86 "HgN/A
9:00 PM81 °FPassing clouds.1 mph84%29.86 "HgN/A
8:30 PM81 °FPassing clouds.2 mph84%29.83 "HgN/A
8:00 PM79 °FPassing clouds.1 mph94%29.83 "HgN/A
7:30 PM81 °FPassing clouds.1 mph89%29.80 "HgN/A
7:00 PM82 °FPartly sunny.1 mph79%29.80 "HgN/A
6:30 PM82 °FPartly sunny.1 mph84%29.77 "HgN/A
6:00 PM82 °FBroken clouds.2 mph84%29.77 "HgN/A
5:30 PM81 °FPartly sunny.5 mph89%29.77 "HgN/A
5:00 PM79 °FScattered clouds.5 mph94%29.77 "HgN/A
4:30 PM79 °FLight rain. Broken clouds.2 mph94%29.77 "HgN/A
4:00 PM77 °FLight rain. Partly sunny.6 mph94%29.80 "Hg6 mi
3:30 PM77 °FRain. Overcast.6 mph94%29.83 "Hg3 mi
3:00 PM77 °FStrong thunderstorms. Low clouds.12 mph94%29.83 "Hg1 mi
2:30 PM81 °FThunderstorms. Partly sunny.10 mph84%29.86 "Hg2 mi
2:00 PM82 °FLight rain. Broken clouds.6 mph79%29.86 "Hg6 mi
1:30 PM84 °FPartly sunny.2 mph74%29.86 "HgN/A
1:00 PM82 °FLight rain. Broken clouds.2 mph79%29.86 "HgN/A
12:30 PM82 °FLight rain. Broken clouds.2 mph79%29.86 "HgN/A
12:00 PM82 °FLight rain. Broken clouds.2 mph84%29.89 "Hg6 mi
11:30 AM79 °FSprinkles. Broken clouds.3 mph94%29.89 "Hg4 mi
11:00 AM81 °FLots of rain. Broken clouds.12 mph84%29.89 "Hg1 mi
10:30 AM82 °FSprinkles. Scattered clouds.5 mph79%29.89 "Hg5 mi
10:00 AM82 °FSprinkles. Scattered clouds.5 mph79%29.89 "Hg5 mi
9:30 AM82 °FSprinkles. Broken clouds.3 mph79%29.89 "Hg5 mi
9:00 AM82 °FSprinkles. Broken clouds.3 mph79%29.86 "Hg6 mi
8:30 AM81 °FSprinkles. Partly sunny.7 mph79%29.86 "HgN/A
8:00 AM82 °FScattered showers. Scattered clouds.7 mph84%29.86 "HgN/A
7:30 AM82 °FScattered showers. Partly sunny.7 mph84%29.83 "HgN/A
7:00 AM84 °FBroken clouds.8 mph79%29.83 "HgN/A
6:30 AM82 °FPassing clouds.6 mph84%29.80 "HgN/A
6:00 AM82 °FPassing clouds.7 mph84%29.80 "HgN/A
5:30 AM82 °FPassing clouds.8 mph84%29.80 "HgN/A
5:00 AM82 °FPartly cloudy.7 mph84%29.80 "HgN/A
4:30 AM82 °FPassing clouds.6 mph84%29.80 "HgN/A
4:00 AM82 °FPassing clouds.6 mph84%29.80 "HgN/A
Weather by CustomWeather, © 2016

See weather overviewHow to use our weather pages